This demonstration page uses our WeatherBlox Daily Observations layout. Learn more.

Left ArrowRight Arrow

Hourly Observations for June 18, 2017

Temp ( °F °C ) Dew Point ( °F °C ) Humidity (%) Winds ( mph kmh ) Pressure ( in mb ) Visibility ( mi km ) Precip ( " mm )
12:59 am 00:59 Mostly Cloudy 77 25 72 22.2 85 85 S 8 13 29.94 1014 8 13 0.00 0.00
1:59 am 01:59 Mostly Cloudy 77 25 72 22.2 85 85 SSW 8 13 29.93 1014 8 13 0.00 0.00
2:59 am 02:59 Mostly Clear 76 24.4 72 22.2 88 88 S 8 13 29.92 1013 8 13 0.00 0.00
3:59 am 03:59 Partly Cloudy 76 24.4 73 22.8 91 91 SSW 8 13 29.92 1013 8 13 0.00 0.00
4:59 am 04:59 Partly Cloudy 76 24.4 73 22.8 91 91 SSW 8 13 29.92 1013 8 13 0.00 0.00
5:35 am 05:35 Mostly Cloudy 76 24.4 73 22.8 91 91 SSW 8 13 29.94 1014 8 13 0.00 0.00
5:59 am 05:59 Mostly Cloudy 76 24.4 73 22.8 91 91 SSW 8 13 29.95 1014 7 11 0.00 0.00
6:59 am 06:59 Mostly Cloudy 77 25 73 22.8 88 88 SSW 9 15 29.96 1015 7 11 0.00 0.00
7:59 am 07:59 Mostly Cloudy 78 25.6 72 22.2 82 82 WSW 12 19 29.98 1015 8 13 0.00 0.00
8:59 am 08:59 Mostly Cloudy 80 26.7 72 22.2 76 76 WSW 10 17 29.98 1015 9 14 0.00 0.00
9:23 am 09:23 Mostly Cloudy 80 26.7 72 22.2 76 76 SSW 9 15 29.97 1015 9 14 0.00 0.00
9:59 am 09:59 Mostly Cloudy 81 27.2 72 22.2 74 74 SW 9 15 29.97 1015 9 14 0.00 0.00
10:50 am 10:50 Mostly Cloudy 82 27.8 72 22.2 72 72 SSW 10 17 29.97 1015 9 14 0.00 0.00
10:59 am 10:59 Mostly Cloudy 82 27.8 73 22.8 74 74 SW 9 15 29.98 1015 9 14 0.00 0.00
11:59 am 11:59 Mostly Cloudy 84 28.9 73 22.8 70 70 SW 10 17 29.98 1015 9 14 0.00 0.00
12:59 pm 12:59 Mostly Cloudy 86 30 73 22.8 65 65 SW 10 17 29.96 1015 9 14 0.00 0.00
1:59 pm 13:59 Mostly Cloudy 87 30.6 72 22.2 61 61 SW 14 22 29.94 1014 9 14 0.00 0.00
2:59 pm 14:59 Mostly Cloudy 89 31.7 72 22.2 57 57 SSW 10 17 29.92 1013 10 16 0.00 0.00
3:59 pm 15:59 Mostly Cloudy 90 32.2 73 22.8 58 58 S 10 17 29.91 1013 10 16 0.00 0.00
4:59 pm 16:59 Partly Cloudy 90 32.2 71 21.7 54 54 SSW 9 15 29.90 1012 10 16 0.00 0.00
5:59 pm 17:59 Mostly Cloudy with Light Rain 80 26.7 73 22.8 79 79 SW 9 15 29.91 1013 5 8 0.05 1.27
6:59 pm 18:59 Mostly Cloudy 82 27.8 72 22.2 72 72 SSW 8 13 29.90 1012 10 16 0.00 0.03
7:59 pm 19:59 Mostly Cloudy 83 28.3 72 22.2 70 70 SSW 9 15 29.90 1013 10 16 0.00 0.00
8:59 pm 20:59 Partly Cloudy 83 28.3 73 22.8 72 72 SSW 10 17 29.92 1013 10 16 0.00 0.00
9:59 pm 21:59 Partly Cloudy 82 27.8 72 22.2 72 72 SSW 9 15 29.94 1014 10 16 0.00 0.00
10:59 pm 22:59 Mostly Clear 81 27.2 72 22.2 74 74 SSW 13 20 29.96 1015 10 16 0.00 0.00
11:59 pm 23:59 Clear 80 26.7 72 22.2 76 76 SSW 12 19 29.96 1014 10 16 0.00 0.00

Powered by AerisWeather